Tracking 31027 objects as of 19-Jul-2025
HD Live streaming from Space Station
objects crossing your sky now

COSMOS 1375 DEB

Track COSMOS 1375 DEB now!
10-day predictions


NORAD ID: 16377
Int'l Code: 1982-055R
Perigee: 848.5 km
Apogee: 913.5 km
Inclination: 65.8 °
Period: 102.4 minutes
Semi major axis: 7252 km
RCS: 0.033 m2 (small)
Launch date: June 6, 1982
Source: Commonwealth of Independent States (former USSR) (CIS)
Launch site: PLESETSK MISSILE AND SPACE COMPLEX (PKMTR)

Note: This is SATELLITE DEBRIS
Your satellite tracking list
ONEWEB-0142
Track 1 satellite(s)




NASA's NSSDC Master Catalog

Two Line Element Set (TLE):
1 16377U 82055R   25199.85954148  .00000818  00000-0  54919-3 0  9992
2 16377  65.8219 149.4493 0044824 216.2078 175.4620 14.05770876 20450
Source of the keplerian elements: AFSPC